1498366800.99,136,20.88,74158.5,9.49,-21.83,-8.03,0,*4E
1498366802.22,137,20.88,74158.8,9.49,-21.17,-7.43,0,*49
1498366803.44,138,20.94,74162.0,9.49,-20.39,-6.81,0,*44
1498366804.64,139,20.94,74158.0,9.49,-19.91,-6.39,0,*4E
1498366805.88,140,20.88,74154.8,9.47,-19.41,-5.85,0,*47
1498366807.09,141,20.94,74156.3,9.47,-18.45,-5.27,0,*4B
1498366808.29,142,20.88,74152.0,9.47,-18.55,-5.47,0,*4F
1498366809.53,143,20.94,74152.8,9.45,-17.83,-5.03,0,*48
1498366810.8,144,20.94,74152.5,9.45,-17.25,-4.73,0,*45
1498366812.01,145,20.94,74144.0,9.45,-16.83,-4.65,0,*4E
1498366813.23,146,20.94,74150.5,9.43,-16.97,-5.03,0,*4F
1498366814.47,147,20.88,74140.8,9.43,-16.69,-5.11,0,*4C
1498366815.7,148,20.94,74146.3,9.41,-16.37,-4.93,0,*41
1498366816.98,149,20.94,74146.8,9.41,-16.09,-5.07,0,*41
1498366818.18,150,20.94,74144.3,9.37,-15.29,-4.81,0,*46
1498366819.39,151,20.94,74146.5,9.37,-15.11,-4.85,0,*48
1498366820.59,152,20.94,74146.5,9.33,-14.61,-4.89,0,*45
1498366821.84,153,20.94,74150.8,9.33,-14.47,-5.03,0,*43
1498366823.03,154,20.94,74148.0,9.33,-13.55,-4.53,0,*44
1498366824.24,155,20.94,74146.3,9.33,-13.29,-4.65,0,*4B
1498366825.47,156,20.94,74144.8,9.31,-12.75,-4.53,0,*47
1498366826.7,157,20.94,74148.0,9.31,-11.81,-4.05,0,*4D
1498366827.91,158,20.88,74148.3,9.31,-11.23,-3.79,0,*46
1498366829.11,159,20.94,74148.8,9.31,-10.85,-3.87,0,*4B
1498366830.31,160,20.94,74150.5,9.31,-10.27,-3.79,0,*48
1498366831.53,161,20.94,74150.0,9.31,-9.83,-3.91,0,*79
1498366832.7,162,20.94,74146.3,9.33,-9.93,-4.41,0,*73
1498366833.92,163,20.94,74148.0,9.33,-9.57,-4.77,0,*7F
1498366835.11,164,20.94,74148.3,9.33,-9.57,-5.39,0,*73
1498366836.32,165,20.94,74150.0,9.33,-9.67,-5.89,0,*7A
1498366837.54,166,20.94,74148.5,9.31,-9.49,-6.39,0,*7F
1498366838.74,167,20.94,74144.3,9.31,-9.19,-6.59,0,*7D
1498366839.95,168,20.88,74142.8,9.27,-9.31,-7.23,0,*73
1498366841.2,169,20.94,74144.8,9.31,-9.45,-7.95,0,*7B
1498366842.43,170,20.94,74140.3,9.27,-9.19,-8.11,0,*7E
1498366843.61,171,20.94,74142.0,9.25,-8.71,-8.25,0,*75
1498366844.79,172,20.94,74144.3,9.25,-8.71,-8.71,0,*77
1498366845.99,173,20.94,74140.5,9.23,-8.67,-8.93,0,*7B
1498366847.19,174,20.88,74136.8,9.21,-8.59,-9.37,0,*7C
1498366848.4,175,20.94,74138.0,9.23,-8.75,-10.05,0,*48
1498366849.6,176,20.94,74140.3,9.21,-8.85,-10.45,0,*42
1498366850.78,177,20.94,74140.8,9.21,-8.21,-10.09,0,*45
1498366852.0,178,20.94,74136.5,9.21,-8.07,-10.19,0,*4F
1498366853.21,179,20.88,74136.3,9.23,-8.21,-10.49,0,*4D
1498366854.45,180,20.94,74146.3,9.23,-8.45,-10.75,0,*46
1498366855.66,181,20.94,74144.8,9.23,-8.71,-10.93,0,*48
1498366856.85,182,20.94,74144.3,9.21,-9.23,-11.45,0,*45
1498366858.08,183,20.88,74142.3,9.23,-9.53,-11.45,0,*41
1498366859.31,184,20.94,74144.8,9.23,-9.41,-11.19,0,*4C
1498366860.55,185,20.94,74146.5,9.23,-9.67,-11.29,0,*4A
1498366861.73,186,20.94,74150.0,9.25,-10.01,-11.01,0,*7D
1498366862.92,187,20.94,74148.3,9.25,-10.31,-11.23,0,*7F
1498366864.12,188,20.94,74150.0,9.23,-10.05,-10.53,0,*77
1498366865.33,189,20.94,74148.0,9.23,-10.05,-10.31,0,*72
1498366866.52,190,20.94,74140.8,9.25,-10.45,-10.45,0,*7B
1498366867.73,191,20.94,74140.5,9.27,-10.15,-9.75,0,*46
1498366868.97,192,20.94,74142.0,9.27,-10.27,-9.45,0,*47
1498366870.18,193,20.94,74142.3,9.27,-10.19,-9.05,0,*4F
1498366871.37,194,20.94,74146.5,9.31,-10.01,-8.63,0,*47
1498366872.58,195,20.94,74144.8,9.31,-10.85,-9.27,0,*4B
1498366873.76,196,20.94,74142.8,9.33,-11.01,-9.27,0,*47
1498366874.95,197,20.94,74148.3,9.33,-10.93,-9.01,0,*48
1498366876.2,198,20.94,74144.8,9.27,-10.63,-8.81,0,*44
1498366877.41,199,20.94,74144.5,9.27,-10.15,-8.29,0,*46
1498366878.65,200,20.94,74148.0,9.31,-9.83,-8.11,0,*7E
1498366879.85,201,20.88,74146.3,9.31,-10.15,-8.67,0,*49
1498366881.09,202,20.94,74148.0,9.27,-10.45,-9.11,0,*48
1498366882.32,203,20.94,74146.5,9.27,-10.45,-9.37,0,*4D
1498366883.53,204,20.94,74146.5,9.27,-9.61,-8.67,0,*70
1498366884.76,205,20.94,74150.8,9.27,-9.11,-8.29,0,*7C
1498366885.98,206,20.94,74150.5,9.27,-8.85,-8.37,0,*7C
1498366887.18,207,20.94,74148.8,9.27,-8.67,-8.37,0,*71
1498366888.41,208,20.94,74150.0,9.31,-8.63,-8.51,0,*7D
1498366889.63,209,20.94,74150.3,9.31,-8.59,-8.51,0,*75
1498366890.83,210,20.88,74144.0,9.27,-8.63,-8.63,0,*72
1498366892.04,211,20.94,74146.3,9.31,-8.89,-9.01,0,*75
1498366893.26,212,20.94,74148.5,9.31,-8.51,-8.75,0,*71
1498366894.48,213,20.94,74146.8,9.31,-8.67,-8.81,0,*7E
1498366895.68,214,20.94,74146.3,9.27,-8.41,-8.63,0,*76
1498366896.88,215,20.94,74148.0,9.31,-8.37,-8.59,0,*78
1498366898.05,216,20.94,74146.5,9.33,-8.21,-8.41,0,*77
1498366899.24,217,20.94,74150.0,9.35,-8.41,-8.59,0,*7F
1498366900.44,218,20.94,74144.3,9.35,-8.17,-8.29,0,*74
1498366901.63,219,20.94,74148.3,9.35,-8.33,-8.59,0,*74
1498366902.8,220,20.94,74148.5,9.37,-8.41,-8.59,0,*79
1498366903.99,221,20.94,74150.0,9.39,-8.55,-8.59,0,*73
1498366905.18,222,20.94,74150.5,9.39,-8.67,-8.59,0,*71
1498366906.4,223,20.94,74148.3,9.39,-8.93,-8.81,0,*7E
1498366907.6,224,20.94,74148.8,9.39,-9.31,-9.05,0,*7D
1498366908.8,225,20.94,74152.0,9.39,-9.23,-8.85,0,*76
1498366910.03,226,20.94,74150.3,9.41,-9.27,-8.81,0,*7A
1498366911.26,227,20.94,74154.5,9.41,-9.49,-8.89,0,*7B
1498366912.48,228,20.94,74154.0,9.41,-9.61,-8.89,0,*7E
1498366913.72,229,20.94,74152.3,9.43,-10.41,-9.45,0,*46
1498366914.93,230,20.94,74148.5,9.43,-10.89,-9.57,0,*49
1498366916.14,231,20.94,74152.8,9.43,-11.11,-9.53,0,*4C
1498366917.38,232,20.94,74152.3,9.41,-11.37,-9.27,0,*4A
1498366918.58,233,20.94,74152.3,9.43,-11.51,-8.97,0,*43
1498366919.81,234,20.94,74152.3,9.45,-11.33,-8.33,0,*48
1498366921.0,235,20.94,74154.8,9.47,-11.23,-7.83,0,*4E
1498366922.23,236,20.94,74150.0,9.47,-11.33,-7.57,0,*45
1498366923.49,237,20.94,74154.0,9.49,-11.85,-7.61,0,*42
1498366924.72,238,20.94,74148.5,9.49,-12.39,-7.65,0,*4D
1498366925.98,239,20.94,74152.3,9.49,-12.57,-7.35,0,*41
1498366927.22,240,20.88,74150.0,9.53,-12.65,-6.81,0,*4B
1498366928.42,241,20.94,74150.0,9.53,-13.11,-6.89,0,*40
1498366929.62,242,20.94,74150.3,9.49,-13.15,-6.39,0,*47
1498366930.82,243,20.94,74148.3,9.49,-13.15,-5.97,0,*41
1498366932.03,244,20.94,74150.5,9.49,-13.11,-5.35,0,*4A
1498366933.26,245,20.94,74148.3,9.49,-12.97,-4.73,0,*47
1498366934.49,246,20.94,74150.8,9.49,-12.71,-4.05,0,*4D
1498366935.72,247,20.94,74150.0,9.53,-12.25,-3.43,0,*43
1498366936.95,248,20.94,74148.0,9.53,-11.89,-2.91,0,*47
1498366938.21,249,20.94,74148.8,9.49,-11.73,-2.55,0,*40
1498366939.41,250,20.94,74150.5,9.55,-11.37,-1.75,0,*44
1498366940.59,251,20.94,74144.3,9.55,-11.11,-1.55,0,*43
1498366941.81,252,20.94,74150.5,9.55,-10.67,-0.97,0,*7F
1498366943.02,253,20.94,74154.5,9.57,-10.15,-0.61,0,*70
1498366944.18,254,20.94,74148.5,9.55,-10.09,-0.61,0,*78
1498366945.37,255,20.94,74150.5,9.55,-9.79,-0.27,0,*44
1498366946.6,256,20.88,74148.3,9.57,-9.27,-0.23,0,*4A
1498366947.81,257,20.94,74154.8,9.57,-8.85,-0.15,0,*47
1498366949.03,258,20.94,74150.8,9.57,-8.63,-0.27,0,*41
1498366950.22,259,20.88,74150.3,9.55,-8.29,-0.23,0,*48
1498366951.44,260,20.94,74152.8,9.57,-8.03,-0.33,0,*49
1498366952.64,261,20.94,74148.8,9.57,-7.53,-0.33,0,*42
1498366953.82,262,20.94,74150.8,9.59,-6.81,-0.03,0,*72
1498366955.06,263,20.88,74148.5,9.61,-6.23,0.21,0,*6D
1498366956.25,264,20.94,74150.5,9.57,-6.05,0.09,0,*51
1498366957.44,265,20.94,74150.8,9.59,-5.77,0.05,0,*54
1498366958.64,266,20.94,74152.3,9.59,-5.89,-0.29,0,*45
1498366959.88,267,20.94,74150.0,9.61,-5.85,-0.41,0,*4D
1498366961.1,268,20.94,74148.8,9.61,-5.35,-0.27,0,*49
1498366962.3,269,20.94,74152.8,9.61,-5.43,-0.49,0,*41
1498366963.5,270,20.94,74150.5,9.61,-5.43,-0.73,0,*40
1498366964.71,271,20.94,74150.8,9.61,-5.35,-0.85,0,*49
1498366965.94,272,20.94,74152.8,9.65,-5.07,-0.81,0,*4B
1498366967.16,273,20.94,74154.5,9.63,-5.11,-1.13,0,*71
1498366968.39,274,20.94,74154.3,9.65,-5.31,-1.59,0,*7C
1498366969.59,275,20.94,74152.5,9.63,-5.47,-1.91,0,*7E
1498366970.8,276,20.94,74150.8,9.65,-5.51,-2.23,0,*76
1498366972.03,277,20.94,74150.8,9.63,-5.69,-2.75,0,*79
1498366973.23,278,20.94,74150.0,9.63,-5.69,-2.99,0,*74
1498366974.43,279,20.94,74148.5,9.63,-5.23,-2.87,0,*74
1498366975.65,280,20.94,74150.8,9.63,-4.93,-2.75,0,*75
1498366976.85,281,20.94,74152.5,9.61,-4.65,-2.79,0,*73
1498366978.05,282,20.94,74152.0,9.61,-4.41,-2.87,0,*77
1498366979.25,283,20.94,74152.5,9.61,-4.53,-3.15,0,*7F
1498366980.45,284,20.94,74150.8,9.61,-4.17,-3.15,0,*78
1498366981.65,285,20.94,74150.0,9.65,-3.27,-2.35,0,*7A
1498366982.85,286,20.94,74152.3,9.65,-2.83,-2.19,0,*78
1498366984.11,287,20.94,74150.8,9.69,-2.55,-2.03,0,*75
1498366985.33,288,20.94,74152.3,9.69,-2.71,-2.27,0,*7A
1498366986.56,289,20.94,74152.8,9.73,-2.75,-2.39,0,*7B
1498366987.78,290,20.94,74154.3,9.77,-2.71,-2.39,0,*73
1498366989.01,291,20.94,74154.8,9.81,-2.83,-2.59,0,*70
1498366990.19,292,20.94,74152.0,9.83,-3.31,-2.99,0,*75
1498366991.4,293,20.94,74152.8,9.87,-3.51,-3.27,0,*72
1498366992.61,294,20.94,74150.8,9.87,-3.91,-3.59,0,*70
1498366993.84,295,20.94,74150.5,9.91,-4.01,-3.67,0,*75
1498366995.04,296,20.94,74154.3,9.95,-4.49,-4.01,0,*79
1498366996.21,297,20.94,74154.3,9.95,-4.53,-4.05,0,*77
1498366997.42,298,20.88,74150.8,9.95,-5.07,-4.53,0,*7B
1498366998.63,299,20.88,74150.8,10.01,-6.01,-5.43,0,*4A
1498366999.86,300,20.94,74152.5,10.01,-6.31,-5.65,0,*4C
1498367001.06,301,20.94,74152.0,10.03,-6.31,-5.65,0,*4F
1498367002.24,302,20.94,74152.5,10.03,-6.89,-6.05,0,*4A
1498367003.43,303,20.94,74154.8,10.05,-7.23,-6.55,0,*49
1498367004.67,304,20.94,74158.3,10.05,-7.61,-6.97,0,*46
1498367005.86,305,20.94,74152.5,10.05,-8.17,-7.49,0,*4B
1498367007.04,306,20.94,74158.5,10.05,-8.97,-8.29,0,*49
1498367008.22,307,20.94,74154.5,10.03,-9.23,-8.71,0,*4D
1498367009.43,308,20.94,74156.0,10.03,-9.23,-8.51,0,*40
1498367010.65,309,20.94,74156.5,10.01,-9.37,-8.59,0,*4E
1498367011.87,310,20.94,74154.3,10.01,-9.93,-9.15,0,*41
1498367013.07,311,20.94,74154.0,9.99,-10.09,-9.15,0,*42
1498367014.25,312,20.88,74152.5,9.99,-10.01,-9.01,0,*4C
1498367015.43,313,20.94,74154.5,9.99,-10.09,-8.93,0,*4F
1498367016.63,314,20.88,74152.5,9.99,-10.01,-8.81,0,*43
1498367017.84,315,20.94,74156.8,9.93,-10.27,-8.85,0,*48
1498367019.03,316,20.94,74158.8,9.93,-10.31,-8.67,0,*40
1498367020.26,317,20.94,74156.8,9.93,-10.41,-8.55,0,*47
1498367021.49,318,20.94,74156.8,9.93,-10.57,-8.51,0,*4B
1498367022.69,319,20.94,74158.3,9.93,-10.45,-8.17,0,*4B
1498367023.9,320,20.94,74158.0,9.93,-10.31,-7.87,0,*44
1498367025.13,321,20.94,74156.8,9.93,-10.45,-7.69,0,*46
1498367026.34,322,20.94,74158.3,9.91,-10.35,-7.39,0,*45
1498367027.55,323,20.94,74158.0,9.91,-10.49,-7.35,0,*43
1498367028.78,324,20.94,74156.5,9.89,-11.15,-7.73,0,*47
1498367030.02,325,20.94,74162.5,9.89,-11.01,-7.39,0,*4D
1498367031.26,326,20.94,74160.5,9.89,-11.07,-7.49,0,*4F
1498367032.49,327,20.94,74158.0,9.89,-11.33,-7.49,0,*49
1498367033.72,328,20.94,74156.3,9.89,-10.93,-7.05,0,*45
1498367034.95,329,20.94,74158.8,9.85,-10.71,-6.69,0,*4F
1498367036.16,330,20.94,74156.3,9.87,-10.41,-6.43,0,*4E
1498367037.36,331,20.94,74156.5,9.85,-10.27,-6.09,0,*43
1498367038.56,332,20.94,74156.0,9.85,-10.05,-5.97,0,*44
1498367039.74,333,20.94,74156.5,9.83,-10.01,-5.97,0,*47
1498367040.91,334,20.94,74158.5,9.83,-10.05,-6.01,0,*48
1498367042.13,335,20.94,74158.8,9.83,-9.49,-5.73,0,*7F
1498367043.36,336,20.94,74156.5,9.81,-9.75,-5.93,0,*7F
1498367044.57,337,20.88,74154.8,9.83,-9.71,-5.89,0,*73
1498367045.77,338,20.94,74152.0,9.81,-9.27,-5.47,0,*7F
1498367047.0,339,20.88,74150.0,9.83,-9.49,-5.65,0,*74
1498367048.23,340,20.94,74152.3,9.81,-9.75,-5.65,0,*77
1498367049.45,341,20.94,74150.8,9.81,-9.61,-5.39,0,*7A
1498367050.67,342,20.94,74150.3,9.81,-9.97,-5.69,0,*75
1498367051.9,343,20.94,74150.8,9.77,-10.09,-5.61,0,*4A
1498367053.13,344,20.94,74148.5,9.79,-9.49,-4.77,0,*79
1498367054.32,345,20.94,74146.3,9.79,-9.61,-4.99,0,*72
1498367055.5,346,20.94,74148.8,9.79,-9.75,-4.99,0,*74
1498367056.7,347,20.94,74144.8,9.77,-10.09,-5.39,0,*43
1498367057.92,348,20.94,74146.8,9.71,-9.83,-5.19,0,*72
1498367059.1,349,20.88,74142.8,9.71,-8.89,-4.29,0,*7A
1498367060.31,350,20.94,74146.5,9.69,-8.93,-4.49,0,*76
1498367061.48,351,20.94,74146.3,9.67,-8.33,-4.09,0,*77
1498367062.7,352,20.94,74142.8,9.67,-7.65,-3.67,0,*77
1498367063.92,353,20.94,74144.3,9.67,-7.73,-3.71,0,*76
1498367065.14,354,20.94,74140.3,9.67,-7.35,-3.43,0,*72
1498367066.35,355,20.94,74146.5,9.67,-6.93,-3.35,0,*7F
1498367067.57,356,20.94,74142.8,9.67,-7.05,-3.55,0,*74
1498367068.74,357,20.94,74144.8,9.67,-6.47,-3.19,0,*7A
1498367069.94,358,20.94,74146.5,9.65,-6.35,-3.11,0,*7A
1498367071.14,359,20.94,74144.5,9.67,-6.19,-3.23,0,*76
1498367072.34,360,20.94,74148.0,9.67,-5.81,-3.03,0,*7C
1498367073.57,361,20.94,74144.3,9.65,-5.73,-3.11,0,*71
1498367074.76,362,20.94,74146.5,9.67,-5.77,-3.19,0,*7C
1498367075.99,363,20.94,74148.0,9.67,-5.89,-3.47,0,*77
1498367077.18,364,20.94,74150.0,9.65,-6.05,-3.87,0,*79
1498367078.43,365,20.94,74146.5,9.65,-5.69,-3.71,0,*78
1498367079.68,366,20.94,74146.8,9.65,-5.27,-3.51,0,*73
1498367080.87,367,20.94,74144.0,9.63,-4.99,-3.51,0,*70
1498367082.12,368,20.94,74140.5,9.65,-4.89,-3.59,0,*70
1498367083.34,369,20.94,74142.5,9.65,-4.85,-3.75,0,*73
1498367084.53,370,20.94,74144.5,9.67,-4.37,-3.47,0,*71
1498367085.73,371,20.94,74140.0,9.67,-4.21,-3.47,0,*77
1498367086.94,372,20.94,74140.3,9.65,-3.95,-3.39,0,*77
1498367088.14,373,20.94,74142.8,9.65,-4.13,-3.75,0,*77
1498367089.34,374,20.94,74142.8,9.69,-4.49,-4.37,0,*72
1498367090.52,375,20.94,74146.0,9.67,-4.57,-4.45,0,*77
1498367091.74,376,20.94,74144.8,9.67,-4.73,-4.81,0,*7A
1498367092.95,377,20.94,74146.0,9.67,-4.33,-4.69,0,*79
1498367094.18,378,20.94,74148.0,9.65,-4.25,-4.73,0,*78
1498367095.39,379,20.94,74148.8,9.67,-4.37,-5.03,0,*7E
1498367096.57,380,20.94,74150.3,9.67,-4.57,-5.39,0,*77
1498367097.76,381,20.94,74144.8,9.67,-4.81,-6.01,0,*75
1498367099.01,382,20.94,74148.8,9.65,-4.73,-5.93,0,*71
1498367100.21,383,20.94,74154.8,9.65,-4.61,-5.97,0,*77
1498367101.42,384,20.94,74152.5,9.65,-4.65,-6.31,0,*7B
1498367102.65,385,20.94,74158.5,9.65,-4.89,-6.59,0,*76
1498367103.88,386,20.94,74156.3,9.65,-5.03,-6.89,0,*7B
1498367105.1,387,20.94,74154.3,9.65,-4.73,-6.77,0,*7D
1498367106.32,388,20.94,74156.0,9.65,-5.43,-7.91,0,*79
1498367107.58,389,20.94,74156.8,9.65,-5.31,-8.03,0,*79
1498367108.8,390,20.94,74156.0,9.67,-4.81,-7.77,0,*75
1498367110.03,391,20.94,74158.0,9.65,-4.61,-7.91,0,*70
1498367111.23,392,20.94,74156.0,9.65,-4.61,-8.25,0,*73
1498367112.44,393,20.94,74158.5,9.67,-5.03,-9.01,0,*72
1498367113.63,394,20.94,74158.0,9.67,-5.61,-9.89,0,*71
1498367114.84,395,20.94,74158.3,9.67,-5.61,-10.05,0,*4C
1498367116.08,396,20.94,74156.3,9.69,-5.93,-10.57,0,*4B
1498367117.29,397,20.94,74156.0,9.69,-6.59,-11.41,0,*49
1498367118.52,398,20.94,74156.3,9.69,-7.65,-12.43,0,*49
1498367119.72,399,20.94,74160.8,9.69,-8.29,-13.11,0,*49
1498367120.91,400,20.94,74158.8,9.67,-8.41,-12.97,0,*41
1498367122.12,401,20.94,74156.3,9.69,-8.93,-13.23,0,*4F
1498367123.35,402,20.94,74158.0,9.67,-9.41,-13.37,0,*49
1498367124.56,403,20.94,74158.5,9.69,-10.05,-13.55,0,*7A
1498367125.77,404,20.94,74160.3,9.67,-11.07,-14.11,0,*77
1498367126.98,405,20.94,74156.5,9.67,-11.55,-14.11,0,*71
1498367128.21,406,20.94,74156.5,9.67,-12.71,-14.43,0,*70
1498367129.44,407,20.94,74158.0,9.67,-13.29,-14.43,0,*7D
1498367130.68,408,20.94,74156.3,9.65,-13.79,-14.15,0,*76
1498367131.9,409,20.94,74160.0,9.63,-14.47,-14.11,0,*7F
1498367133.07,410,20.94,74158.0,9.63,-14.69,-13.69,0,*73
1498367134.3,411,20.94,74156.5,9.63,-15.35,-13.83,0,*7E
1498367135.51,412,20.94,74158.8,9.59,-15.95,-14.05,0,*77
1498367136.72,413,20.94,74156.0,9.59,-16.51,-14.11,0,*78
1498367137.9,414,20.94,74158.0,9.59,-16.59,-13.73,0,*74
1498367139.11,415,20.94,74158.8,9.57,-16.93,-13.47,0,*7A
1498367140.37,416,20.94,74160.8,9.57,-17.07,-13.29,0,*7D
1498367141.61,417,20.94,74160.5,9.55,-17.41,-13.33,0,*77
1498367142.86,418,20.94,74158.5,9.53,-17.79,-13.37,0,*71
1498367144.1,419,20.88,74156.0,9.49,-17.97,-13.43,0,*78
1498367145.31,420,20.94,74156.8,9.49,-18.21,-13.43,0,*70
1498367146.52,421,20.94,74156.8,9.49,-18.21,-13.11,0,*76
1498367147.76,422,20.94,74158.0,9.45,-18.41,-13.33,0,*7F
1498367148.98,423,20.94,74158.0,9.45,-18.65,-13.55,0,*78
1498367150.22,424,20.94,74152.3,9.43,-19.23,-14.01,0,*7C
1498367151.49,425,20.94,74156.3,9.41,-19.23,-13.83,0,*72
1498367152.73,426,20.94,74156.8,9.41,-19.37,-13.83,0,*74
1498367153.97,427,20.94,74158.3,9.41,-19.41,-13.65,0,*7C
1498367155.17,428,20.94,74150.8,9.37,-20.09,-14.01,0,*71
1498367156.42,429,20.94,74154.3,9.39,-20.35,-13.83,0,*7C
1498367157.65,430,20.94,74152.5,9.37,-21.57,-14.51,0,*77
1498367158.86,431,20.94,74150.8,9.33,-21.03,-13.47,0,*73
1498367160.08,432,20.94,74154.0,9.33,-20.89,-12.75,0,*73
1498367161.27,433,20.94,74150.0,9.33,-21.17,-12.47,0,*75
1498367162.48,434,20.94,74146.8,9.31,-21.39,-12.21,0,*7C
1498367163.71,435,20.94,74150.8,9.31,-21.43,-11.89,0,*71
1498367164.95,436,20.94,74148.5,9.31,-21.93,-11.81,0,*77
1498367166.19,437,20.94,74148.3,9.27,-21.63,-11.29,0,*7C
1498367167.43,438,20.94,74146.3,9.23,-21.87,-11.19,0,*7E
1498367168.63,439,20.94,74148.8,9.23,-20.69,-9.93,0,*45
1498367169.85,440,20.94,74146.0,9.23,-19.99,-9.01,0,*45
1498367171.05,441,20.94,74146.5,9.23,-20.25,-9.23,0,*49
1498367172.28,442,20.94,74144.0,9.23,-19.61,-8.67,0,*41
1498367173.49,443,20.94,74144.0,9.21,-19.61,-8.71,0,*45
1498367174.7,444,20.94,74146.8,9.21,-19.23,-8.33,0,*42
1498367175.94,445,20.94,74142.0,9.19,-18.79,-8.07,0,*41
1498367177.18,446,20.94,74136.8,9.19,-18.17,-7.43,0,*45
1498367178.41,447,20.94,74146.0,9.19,-17.11,-6.51,0,*4F
1498367179.62,448,20.94,74144.3,9.21,-15.89,-5.35,0,*49
1498367180.84,449,20.94,74144.0,9.21,-15.75,-5.23,0,*4C
1498367182.07,450,20.94,74144.0,9.23,-15.01,-4.65,0,*46
1498367183.28,451,20.94,74142.5,9.25,-14.79,-4.61,0,*4B
1498367184.49,452,20.94,74140.8,9.31,-14.11,-4.25,0,*43
1498367185.69,453,20.94,74144.3,9.31,-13.47,-3.91,0,*4E
1498367186.9,454,20.94,74144.5,9.35,-13.07,-3.83,0,*4A
1498367188.1,455,20.94,74140.3,9.37,-12.65,-3.91,0,*4F
1498367189.33,456,20.94,74140.3,9.39,-13.23,-4.73,0,*4A
1498367190.56,457,20.94,74142.8,9.39,-13.55,-5.61,0,*48
1498367191.76,458,20.94,74142.8,9.39,-13.55,-6.13,0,*41
1498367192.97,459,20.94,74138.3,9.37,-13.37,-6.39,0,*42
1498367194.17,460,20.94,74142.8,9.39,-13.23,-6.85,0,*44
1498367195.4,461,20.94,74142.3,9.39,-13.23,-7.31,0,*4B
1498367196.6,462,20.94,74138.0,9.37,-13.43,-7.99,0,*42
1498367197.81,463,20.94,74134.5,9.37,-13.51,-8.51,0,*4B
1498367199.04,464,20.94,74134.3,9.37,-13.79,-9.11,0,*43
1498367200.22,465,20.94,74138.5,9.37,-14.11,-9.93,0,*41
1498367201.42,466,20.94,74138.8,9.37,-14.15,-10.15,0,*70
1498367202.62,467,20.94,74132.8,9.37,-14.23,-10.35,0,*76
1498367203.83,468,20.94,74140.3,9.35,-14.69,-10.89,0,*72
1498367205.1,469,20.94,74142.3,9.35,-14.55,-10.67,0,*7C
1498367206.32,470,20.94,74138.8,9.35,-13.93,-9.83,0,*4B
1498367207.57,471,20.94,74136.8,9.35,-14.47,-10.09,0,*7E
1498367208.76,472,20.94,74136.0,9.37,-14.89,-10.31,0,*76
1498367209.96,473,20.94,74134.8,9.37,-15.01,-10.05,0,*71
1498367211.15,474,20.94,74134.0,9.39,-15.11,-9.89,0,*45
1498367212.35,475,20.94,74134.5,9.39,-14.65,-9.23,0,*46
1498367213.58,476,20.88,74128.5,9.41,-15.39,-9.75,0,*41
1498367214.8,477,20.94,74134.0,9.43,-15.89,-10.05,0,*76
1498367216.03,478,20.94,74136.8,9.43,-16.65,-10.35,0,*7B
1498367217.26,479,20.94,74142.0,9.43,-16.65,-10.35,0,*7A
1498367218.5,480,20.94,74144.0,9.45,-16.69,-10.19,0,*78
1498367219.72,481,20.94,74134.8,9.45,-16.59,-9.79,0,*44
1498367220.93,482,20.94,74134.8,9.47,-16.41,-9.49,0,*4F
1498367222.14,483,20.94,74138.5,9.49,-16.93,-10.01,0,*7B
1498367223.36,484,20.94,74134.5,9.49,-17.31,-10.35,0,*72
1498367224.6,485,20.94,74136.3,9.53,-17.45,-10.53,0,*7B
1498367225.84,486,20.88,74132.5,9.49,-17.83,-11.07,0,*79
1498367227.1,487,20.94,74132.8,9.49,-18.55,-11.73,0,*7F
1498367228.35,488,20.94,74134.8,9.49,-18.69,-11.93,0,*71
1498367229.58,489,20.94,74138.3,9.49,-18.73,-11.81,0,*78
1498367230.82,490,20.94,74136.0,9.49,-18.99,-11.85,0,*70
1498367232.01,491,20.94,74136.0,9.47,-18.69,-11.41,0,*78
1498367233.22,492,20.94,74138.8,9.47,-18.83,-11.33,0,*7A
1498367234.41,493,20.94,74136.0,9.47,-18.21,-10.49,0,*7F
1498367235.62,494,20.94,74138.8,9.49,-17.35,-9.75,0,*4B
1498367236.86,495,20.94,74136.8,9.53,-17.63,-10.01,0,*79
1498367238.1,496,20.94,74138.8,9.53,-18.17,-10.41,0,*72
1498367239.32,497,20.94,74136.3,9.55,-18.01,-10.27,0,*72
1498367240.53,498,20.94,74138.5,9.55,-18.45,-10.79,0,*76
1498367241.77,499,20.94,74138.8,9.57,-18.35,-10.89,0,*7D
1498367243.01,500,20.94,74138.5,9.57,-18.59,-11.11,0,*76
1498367244.21,501,20.94,74136.8,9.55,-18.49,-11.33,0,*74
1498367245.42,502,20.94,74140.0,9.55,-18.49,-11.51,0,*73
1498367246.66,503,20.94,74138.8,9.55,-18.31,-11.63,0,*7C
1498367247.9,504,20.94,74136.3,9.55,-18.35,-11.89,0,*7B
1498367249.12,505,20.94,74136.3,9.53,-18.49,-12.39,0,*7F
1498367250.33,506,20.94,74136.3,9.53,-18.17,-12.25,0,*7A
1498367251.56,507,20.94,74138.5,9.49,-17.69,-12.11,0,*71
1498367252.82,508,20.94,74134.5,9.49,-17.21,-11.81,0,*78
1498367254.08,509,20.94,74132.8,9.53,-16.69,-11.77,0,*76
1498367255.32,510,20.94,74130.8,9.49,-16.45,-11.81,0,*72
1498367256.53,511,20.94,74126.8,9.49,-16.59,-12.25,0,*73
1498367257.78,512,20.94,74126.8,9.49,-16.55,-12.53,0,*7D
1498367259.01,513,20.94,74128.8,9.49,-17.21,-13.65,0,*7A
1498367260.22,514,20.94,74128.3,9.49,-16.93,-13.65,0,*75
1498367261.42,515,20.94,74130.0,9.47,-16.93,-13.87,0,*76
1498367262.66,516,20.94,74132.3,9.45,-17.25,-14.29,0,*78
1498367263.92,517,20.94,74130.3,9.45,-18.01,-15.01,0,*7B
1498367265.16,518,20.94,74130.5,9.45,-18.17,-15.21,0,*71
1498367266.38,519,20.94,74130.0,9.47,-18.45,-15.43,0,*71
1498367267.6,520,20.94,74132.3,9.43,-18.49,-15.43,0,*73
1498367268.82,521,20.94,74130.0,9.43,-18.73,-15.43,0,*7B
1498367270.07,522,20.94,74130.8,9.41,-19.41,-15.95,0,*71
1498367271.28,523,20.94,74126.0,9.41,-19.91,-15.95,0,*7D
1498367272.52,524,20.94,74130.0,9.43,-19.57,-15.29,0,*75
1498367273.76,525,20.94,74128.8,9.39,-19.61,-15.25,0,*70
1498367274.97,526,20.94,74128.0,9.39,-20.09,-15.53,0,*76
1498367276.21,527,20.94,74124.8,9.37,-19.57,-14.79,0,*71
1498367277.42,528,20.94,74128.0,9.37,-19.47,-14.83,0,*7A
1498367278.66,529,20.94,74124.3,9.39,-19.13,-14.51,0,*7B
1498367279.87,530,20.94,74124.5,9.37,-19.81,-15.15,0,*77
1498367281.07,531,20.94,74130.5,9.37,-18.73,-14.43,0,*78
1498367282.34,532,20.94,74128.8,9.35,-18.31,-14.01,0,*79
1498367283.57,533,20.94,74128.3,9.37,-18.59,-14.55,0,*75
1498367284.78,534,20.94,74130.0,9.37,-18.49,-14.55,0,*73
1498367285.99,535,20.94,74130.0,9.37,-18.41,-14.55,0,*7A
1498367287.2,536,20.94,74128.8,9.39,-18.21,-14.65,0,*72
1498367288.41,537,20.94,74134.3,9.33,-18.11,-14.83,0,*72
1498367289.65,538,20.94,74134.3,9.35,-17.87,-14.75,0,*72
1498367290.84,539,20.94,74130.8,9.33,-18.17,-15.29,0,*7B
1498367292.09,540,20.94,74132.5,9.35,-18.31,-15.71,0,*7A
1498367293.3,541,20.94,74132.5,9.37,-18.69,-16.31,0,*73
1498367294.54,542,20.94,74138.3,9.35,-18.45,-16.17,0,*78
1498367295.78,543,20.94,74134.5,9.35,-18.59,-16.59,0,*7E
1498367297.03,544,20.94,74136.0,9.35,-18.59,-16.65,0,*76
1498367298.22,545,20.94,74138.3,9.37,-18.69,-16.93,0,*7F
1498367299.43,546,20.94,74136.8,9.37,-18.73,-17.21,0,*7F
1498367300.62,547,20.94,74134.5,9.37,-18.83,-17.35,0,*74
1498367301.8,548,20.94,74132.5,9.37,-18.99,-17.49,0,*7B
1498367303.04,549,20.94,74134.5,9.37,-17.59,-16.27,0,*70
1498367304.27,550,20.94,74138.8,9.39,-16.79,-15.57,0,*71
1498367305.49,551,20.94,74136.3,9.43,-16.37,-15.43,0,*72
1498367306.74,552,20.94,74132.8,9.45,-16.45,-15.57,0,*77
1498367307.97,553,20.94,74134.0,9.45,-17.73,-17.21,0,*71
1498367309.16,554,20.94,74132.0,9.47,-19.51,-19.17,0,*71
1498367310.41,555,20.94,74134.3,9.47,-19.27,-18.89,0,*77
1498367311.61,556,20.94,74130.0,9.49,-19.03,-18.83,0,*76
1498367312.82,557,20.94,74130.8,9.49,-19.03,-18.99,0,*7C
1498367314.03,558,20.94,74124.0,9.53,-19.75,-19.75,0,*7A
1498367315.28,559,20.94,74130.0,9.53,-20.15,-20.15,0,*7B
1498367316.49,560,20.94,74132.5,9.55,-20.25,-20.35,0,*76
1498367317.75,561,20.94,74136.3,9.53,-20.19,-20.53,0,*7E
1498367318.95,562,20.94,74136.8,9.55,-20.35,-20.73,0,*77
1498367320.2,563,20.94,74128.8,9.57,-20.43,-20.79,0,*7F
1498367321.41,564,20.94,74132.5,9.57,-20.63,-21.39,0,*7F